Flag for Switzerland Weather past 2 weeks in Illnau-Effretikon, Zurich, Switzerland

Now
38 °F

Chilly.


Feels Like: 33 °F
Forecast: 29 / 37 °F
Wind: 7 mph from Southwest

Location: Zurich Town / Ville.

Current Time: Dec 25, 2014 at 6:55:17 PM

Latest Report: Dec 25, 2014 at 6:00 PM


Visibility: N/A

Pressure: 30.42 "Hg

Humidity: 74%

Dew point: 31 °F

Location of Illnau-EffretikonLocation

Historic Weather in Illnau-Effretikon — Graph

°F

Illnau-Effretikon temperature yesterday

Maximum temperature yesterday: 45 °F (at 3:00 PM)
Minimum temperature yesterday: 33 °F (at 7:00 AM)
Average temperature yesterday: 40 °F

Past Weeks' High & Low Weather Summary

 TemperatureHumidityPressure
High54 °F (Dec 19, 2:00 PM)96% (Dec 16, 3:00 AM)30.60 "Hg (Dec 16, 3:00 AM)
Low32 °F (Dec 23, 7:00 AM)43% (Dec 13, 1:00 PM)29.87 "Hg (Dec 12, 8:00 PM)
Average43 °F76%30.20 "Hg
* Reported Dec 10 5:00 PM — Dec 25 5:00 PM, Illnau-Effretikon, Weather by CustomWeather, © 2014

Note: Actual official high and low records may vary slightly from our data, if they occured in-between our weather recording intervals... More about our weather records

Advertising

Illnau-Effretikon weather history for previous 24 hours

 ConditionsComfort  
Time TempWeatherWind HumidityBarometerVisibility
5:00 PM
Dec 25
39 °FChilly.6 mph73%30.40 "HgN/A
4:00 PM39 °FChilly.7 mph75%30.39 "HgN/A
3:00 PM39 °FChilly.7 mph79%30.37 "HgN/A
2:00 PM40 °FChilly.8 mph81%30.36 "HgN/A
1:00 PM41 °FQuite cool.9 mph82%30.35 "HgN/A
12:00 PM41 °FQuite cool.8 mph88%30.35 "HgN/A
11:00 AM41 °FQuite cool.8 mph96%30.36 "HgN/A
10:00 AM42 °FQuite cool.3 mph92%30.34 "HgN/A
9:00 AM41 °FQuite cool.3 mph92%30.33 "HgN/A
8:00 AM42 °FQuite cool.7 mph89%30.31 "HgN/A
7:00 AM42 °FFog.5 mph85%30.31 "HgN/A
6:00 AM42 °FQuite cool.7 mph83%30.30 "HgN/A
5:00 AM44 °FQuite cool.9 mph71%30.29 "HgN/A
3:00 AM45 °FQuite cool.10 mph62%30.29 "HgN/A
2:00 AM46 °FCool.12 mph58%30.29 "HgN/A
1:00 AM46 °FCool.10 mph59%30.29 "HgN/A
12:00 AM44 °FQuite cool.8 mph63%30.31 "HgN/A
11:00 PM
Dec 24
45 °FQuite cool.14 mph60%30.31 "HgN/A
10:00 PM44 °FQuite cool.15 mph63%30.32 "HgN/A
9:00 PM44 °FQuite cool.17 mph62%30.32 "HgN/A
8:00 PM42 °FQuite cool.10 mph68%30.32 "HgN/A
7:00 PM42 °FQuite cool.7 mph68%30.31 "HgN/A
6:00 PM43 °FQuite cool.6 mph69%30.31 "HgN/A
Weather by CustomWeather, © 2014

See weather overviewHow to use our weather pages